Simultaneous Nadir Overpasses (SNOs) Predictions

Prediction of SNOs between GOES-15 and NOAA-20 Satellite Orbit:

Table of predicted SNOs for the next 14.0 days since TLE Epoch: 7/27/2024
Index Date Time (GOES-15) GOES-15 Lat,Lon NOAA-20 Lat,Lon Distance(km) Time Diff (sec)
1 07/27/2024 09:01:47 -0.36, 61.21 0.55, 65.22 457.77 80
2 07/28/2024 21:26:14 0.40, 61.33 0.69, 59.96 155.32 80
3 07/29/2024 21:04:49 0.37, 61.35 -0.33, 64.49 357.57 80
4 07/31/2024 09:29:25 -0.40, 61.30 -0.89, 59.19 241.24 80
5 08/01/2024 09:08:01 -0.38, 61.32 0.14, 63.71 272.05 80
6 08/02/2024 21:32:27 0.41, 61.44 1.09, 58.45 341.04 80
7 08/03/2024 21:11:03 0.39, 61.47 0.06, 62.98 171.63 80
8 08/05/2024 09:32:59 -0.42, 61.43 -1.26, 57.67 428.41 80
9 08/06/2024 09:14:15 -0.40, 61.45 -0.23, 62.20 85.12 80
10 08/08/2024 21:19:57 0.42, 61.59 0.42, 61.46 14.39 80
11 08/09/2024 20:58:31 0.40, 61.62 -0.56, 66.00 498.57 80
